Weather in Uzunkol

Kazakhstan     54°02′42″N   65°20′36″E
temp.,
°C
wind,
m/s
gust,
m/s
humid.,
%
clouds,
%
prec.,
mm/h
press.,
hPa
HPBL,
m
16 may, sun
sun1600:00+23sw11375 0.1 101911
03:00+20wsw334855 1.1 102040
06:00+18wnw455494 1.1 102066
09:00+23nw354597 0.0 1020213
12:00+29wnw343399 0.0 1020871
15:00+32nw46235 0.0 10202782
18:00+32nw562041 0.0 10193552
21:00+27n223198 0.0 101915
17 may, mon
mon1700:00+23wnw363948 0.0 102097
03:00+21wnw344483 0.0 102052
06:00+19nw355883 0.9 102173
09:00+24w23425 0.1 1021248
12:00+29sw45291 0.1 1020945
15:00+32wsw582239 0.0 10183860
18:00+31wnw562432 0.0 10171906
21:00+25s11347 0.4 101614
18 may, tue
tue1800:00+22n224318 0.4 101612
03:00+20w34469 0.0 101658
06:00+18wnw33515 0.0 101536
09:00+23wnw464299 0.0 1015323
12:00+27wnw6837100 0.0 10141327
15:00+28wnw6103538 0.0 10132451
18:00+28nnw910271 0.0 10122724
21:00+22nne5104819 0.0 1013435
19 may, wed
wed1900:00+18nne6106479 0.6 1016769
03:00+14nne71072100 0.0 1018740
06:00+12nne7127136 0.0 1020758
09:00+14ne8105817 0.0 10211170
12:00+17ne79420 0.0 10221433
15:00+20ne78315 0.0 10221776
18:00+20ne67285 0.0 10221843
21:00+17ne36383 0.0 1023121
20 may, thu
thu2000:00+14ene224481 0.0 102421
03:00+12e11495 0.0 102510
06:00+12sse11544 0.0 102510
09:00+16w224157 0.0 1026363
12:00+20nw333226 0.0 10251468
15:00+23nw33270 0.0 10241819
18:00+24wnw33260 0.0 10231966
21:00+21wnw22371 0.0 102216